GFSFLT2_850_spd_021.txt.gz
Wind_Speed
8 6 7 6 6 7 5 5 4 4 4 4 5 5 6 6 5 5 7 7 8 10 11 12 11 11 11 11 11 10 8 8
7 5 4 3 6 6 5 5 5 5 5 6 7 8 8 8 7 7 9 10 11 13 13 14 13 13 13 12 12 9 6 9
7 4 4 3 3 6 6 5 6 8 10 10 10 7 8 10 12 10 11 12 12 13 14 15 15 14 14 13 12 5 9 7
6 5 3 4 3 3 2 2 1 2 3 5 5 6 7 9 12 15 14 13 14 15 16 15 13 8 14 17 10 11 11 10
8 5 3 4 2 4 2 3 3 4 6 5 6 8 7 8 9 11 12 15 10 13 14 12 11 12 11 11 12 12 10 11
7 6 5 2 1 2 2 2 2 2 4 7 6 6 8 8 9 10 11 11 12 12 12 13 14 13 14 15 13 12 10 11
8 8 8 5 3 2 3 2 2 3 3 4 5 5 7 8 10 10 12 12 12 13 14 14 14 15 14 13 13 13 13 12
9 9 8 6 4 4 3 3 2 1 1 1 4 6 6 8 10 11 12 13 14 15 15 16 15 15 16 15 15 14 14 13
9 9 10 10 6 4 3 4 4 3 3 4 5 9 9 12 11 13 14 15 18 18 19 18 18 18 17 18 17 16 15 15
9 10 11 10 7 6 5 5 5 5 5 6 8 10 13 15 13 15 16 19 18 19 20 20 20 21 21 20 19 19 18 18
9 10 9 9 7 5 7 7 6 6 8 8 10 10 14 18 19 18 19 20 22 22 23 22 23 24 24 24 24 22 21 21
5 7 7 8 6 6 6 7 7 9 9 10 11 11 12 15 17 21 21 21 23 24 25 25 27 28 28 29 29 27 26 25
4 4 7 2 4 5 7 7 9 11 11 11 11 12 15 17 18 20 22 20 21 24 25 26 28 27 30 31 33 32 33 32
5 3 1 1 3 4 7 9 10 11 10 11 13 15 26 28 26 26 23 23 24 24 25 27 28 27 29 30 33 34 31 35
5 4 3 3 3 5 6 9 11 12 13 18 20 22 21 27 26 26 23 23 23 23 24 25 29 29 27 30 30 31 30 30
6 5 4 5 7 5 10 9 13 17 18 20 22 25 22 20 21 21 22 22 22 22 20 22 21 28 27 27 30 28 22 30
5 5 7 8 10 13 12 13 16 19 18 19 19 20 21 22 22 22 23 20 18 17 17 14 14 17 15 23 29 25 21 15
7 8 9 11 11 12 13 15 15 17 18 20 19 21 22 22 22 21 19 16 14 15 17 15 16 17 18 20 21 21 21 19
9 11 13 14 14 14 15 16 17 18 20 21 23 24 25 24 21 18 15 16 16 10 7 15 21 19 17 14 11 14 14 13
13 14 16 17 18 18 17 18 19 20 20 23 25 25 24 21 18 15 16 15 8 10 16 19 17 12 9 7 7 7 8 8

GFSFLT2_850_spd_024.txt.gz
Wind_Speed
12 10 9 9 10 8 8 7 8 7 8 7 7 7 9 8 7 6 8 8 9 10 11 11 11 11 12 11 10 10 8 2
5 7 10 9 9 8 7 7 8 10 10 11 12 12 16 13 10 13 11 11 11 12 13 13 13 13 12 12 13 9 5 6
9 8 6 4 7 9 7 9 11 11 12 14 10 13 10 14 16 17 16 15 15 15 15 16 15 10 12 14 13 4 5 9
9 5 4 8 3 7 10 10 8 7 6 9 3 8 5 10 13 16 16 19 17 14 20 17 11 9 11 12 10 9 16 16
10 9 5 8 2 6 3 3 3 5 1 8 4 10 5 4 8 12 15 15 13 17 16 15 14 21 17 14 16 17 13 10
10 4 5 5 5 2 4 2 2 2 4 4 4 2 5 5 4 7 6 9 12 12 14 14 18 17 19 22 18 16 13 11
14 10 5 3 1 2 2 4 2 6 1 6 5 4 7 7 8 8 8 10 12 13 17 17 17 17 17 19 22 19 16 15
13 14 8 5 3 7 3 2 2 2 3 7 5 6 8 10 11 13 14 11 15 20 20 21 21 19 19 17 22 24 20 17
15 12 7 7 8 6 2 4 6 4 5 9 10 7 8 11 13 15 14 15 20 24 19 21 22 22 23 23 21 25 25 21
7 6 4 8 5 7 2 5 7 5 8 8 10 13 13 15 15 15 16 20 24 26 27 24 25 25 26 25 25 26 25 25
1 2 7 4 6 7 7 9 9 2 9 8 12 12 12 19 19 19 20 23 26 25 25 26 26 26 27 27 27 27 28 28
2 3 6 10 8 6 6 7 7 8 8 10 15 17 17 18 21 27 28 31 34 30 26 28 32 32 31 32 32 32 32 30
9 8 8 2 3 5 7 6 7 6 9 12 15 15 22 22 27 23 25 29 26 27 29 31 31 29 30 30 30 30 31 33
7 4 2 5 1 4 7 8 10 10 10 11 13 19 22 28 28 30 21 24 28 29 24 25 26 25 26 29 31 31 28 29
9 6 5 6 3 2 6 8 7 10 13 19 29 25 25 27 20 21 24 26 32 30 26 26 29 27 21 22 25 25 25 28
7 5 4 7 9 7 8 7 10 13 17 18 22 25 22 19 22 24 27 28 31 27 20 23 25 27 30 28 25 21 12 25
5 4 7 9 10 10 13 14 18 20 16 18 19 18 19 23 25 26 28 31 31 22 22 22 21 22 25 29 28 29 25 19
6 7 8 10 13 15 15 17 15 17 18 19 17 22 26 27 28 28 28 21 20 21 22 26 24 24 25 22 23 23 21 20
7 9 11 13 13 14 14 14 15 16 18 20 24 30 27 28 25 22 19 21 24 26 27 19 20 24 19 18 17 18 16 14
10 11 12 16 16 16 16 18 15 16 23 27 29 21 25 22 17 17 23 24 23 15 8 15 17 20 17 16 15 16 16 13

GFSFLT2_850_spd_030.txt.gz
Wind_Speed
14 11 11 10 8 9 11 11 11 10 8 7 8 9 10 9 9 10 9 9 8 8 10 11 9 8 6 7 6 3 1 5
12 11 12 11 10 10 11 11 10 10 8 8 10 10 11 10 10 11 11 10 11 11 14 14 13 11 10 12 11 4 5 7
9 8 12 13 14 12 11 10 8 7 7 8 9 9 9 9 10 10 8 10 11 12 14 16 18 17 16 15 15 11 12 12
8 7 11 11 9 7 7 7 6 7 7 6 6 6 6 6 7 7 7 10 10 12 15 17 20 20 20 19 18 16 14 15
11 8 11 9 8 4 4 4 2 2 3 4 1 2 4 5 5 6 7 9 12 12 14 16 21 22 21 20 19 19 17 16
14 10 9 10 5 5 6 5 4 3 2 3 4 2 3 3 3 3 5 6 9 12 14 16 20 22 22 22 21 20 19 19
17 13 10 7 4 3 3 6 6 6 8 7 8 5 5 6 5 5 5 6 9 11 14 18 22 23 23 23 23 22 22 22
21 13 12 10 7 5 6 10 9 10 13 11 10 9 9 10 9 9 10 11 13 16 18 20 22 23 25 25 24 25 25 24
25 16 16 5 7 7 6 8 11 11 11 12 13 14 14 16 15 13 14 15 16 18 21 23 27 29 29 27 25 26 26 26
28 19 18 16 11 10 9 8 11 10 12 11 14 16 18 19 18 16 18 20 22 25 28 31 34 33 31 31 30 29 30 31
22 18 10 9 7 7 7 10 7 9 10 7 12 15 15 15 17 19 21 23 26 28 30 31 29 30 33 34 33 33 31 29
20 16 11 8 10 10 12 8 7 6 3 4 7 9 11 14 17 19 22 25 28 30 30 29 32 34 35 35 33 32 30 27
12 10 11 11 12 10 7 8 4 3 5 4 7 9 10 14 18 20 22 24 23 24 28 33 35 36 39 40 37 33 22 21
15 14 11 9 6 4 2 1 3 3 4 9 11 14 18 22 24 24 22 22 23 27 31 33 33 34 31 30 23 35 23 17
9 10 10 7 4 2 3 5 8 11 16 21 24 26 28 27 24 24 26 30 32 32 29 26 24 23 25 22 17 13 35 29
11 9 9 12 14 15 16 19 19 21 23 22 22 24 25 27 29 32 32 29 24 22 18 18 20 22 25 25 25 27 22 25
10 11 11 12 15 17 16 15 15 15 16 17 20 21 24 30 33 33 24 24 19 19 20 23 26 23 20 22 23 22 20 18
4 3 7 10 12 15 18 20 16 14 17 22 26 26 30 34 31 27 25 25 25 24 23 22 23 23 17 19 19 21 20 19
3 5 8 11 16 17 16 15 15 14 16 20 24 28 27 23 28 27 27 26 23 23 23 24 25 16 18 17 20 21 20 23
6 11 14 18 20 21 21 19 18 18 23 28 28 27 26 24 22 25 22 23 21 20 19 22 22 23 19 17 19 18 18 21

GFSFLT2_850_spd_033.txt.gz
Wind_Speed
14 11 10 9 9 9 9 10 9 9 9 9 9 9 9 10 9 10 10 10 10 10 12 13 12 11 9 10 9 10 6 6
11 11 11 10 11 11 10 11 10 9 10 10 9 9 8 9 9 9 9 10 10 10 13 14 15 15 14 13 13 9 9 10
11 12 14 13 13 13 11 10 9 9 8 8 7 7 6 6 7 7 8 9 9 9 11 13 15 17 17 16 14 12 12 12
12 11 12 13 12 12 10 9 9 6 6 4 4 3 4 4 5 5 6 5 5 7 9 10 12 16 17 16 16 15 15 14
14 13 12 11 9 8 7 5 5 3 2 3 1 2 3 3 3 3 4 5 6 8 9 10 13 17 19 18 18 18 17 16
16 15 13 12 8 5 3 2 2 2 3 5 5 7 6 5 4 4 6 7 8 9 11 13 15 18 20 18 18 19 19 19
17 17 15 9 7 5 4 4 4 5 5 7 9 9 9 8 8 8 10 12 13 14 16 18 20 22 23 23 24 23 20 20
20 20 15 9 6 6 4 5 7 8 8 9 10 11 12 12 12 12 13 14 16 18 19 20 22 24 27 30 30 27 25 23
23 19 16 8 9 8 6 5 5 6 8 9 12 13 12 12 13 13 14 17 18 18 21 24 28 30 31 31 29 28 27 28
27 24 19 14 6 11 8 7 9 8 9 12 14 15 13 13 14 15 17 19 20 23 27 30 31 30 32 32 31 29 27 26
33 27 18 9 8 11 9 7 8 9 10 14 17 16 15 15 16 17 18 22 25 28 30 31 33 35 35 35 33 31 30 27
25 18 13 11 9 10 8 7 7 7 8 9 9 12 13 15 18 20 24 27 28 29 30 32 33 35 37 36 32 28 23 14
18 9 0 3 6 6 6 6 3 4 5 7 9 12 15 19 22 26 27 27 29 30 32 33 36 38 39 36 36 16 17 22
9 8 6 4 3 4 4 4 7 10 13 15 19 23 25 27 28 30 30 32 35 34 32 31 28 24 25 26 18 33 16 29
11 9 7 5 4 5 6 8 14 19 20 20 20 20 22 25 25 26 28 32 27 22 21 19 21 21 22 22 18 14 35 29
11 10 8 9 11 11 14 15 17 17 18 18 18 20 22 24 25 28 26 22 22 20 20 19 19 20 22 20 19 21 26 26
5 3 1 5 9 13 13 14 16 15 13 15 17 23 28 30 30 26 27 27 26 22 18 17 17 18 22 19 17 16 19 20
1 3 7 9 11 13 16 17 15 13 14 18 23 26 28 27 27 29 31 29 27 22 20 18 18 20 16 15 19 19 23 21
5 6 8 9 12 15 16 16 15 14 17 21 27 27 27 26 29 28 27 24 22 19 15 16 19 20 21 20 18 18 18 22
4 7 12 14 14 17 16 15 16 19 25 27 29 29 29 28 26 26 22 20 19 18 17 17 18 19 19 14 15 17 17 16

GFSFLT2_850_spd_036.txt.gz
Wind_Speed
14 12 10 10 9 11 11 11 12 11 10 11 10 11 11 11 12 12 12 12 13 13 14 15 15 15 14 13 14 12 10 10
11 10 11 11 12 12 11 11 11 11 11 10 10 10 10 9 10 10 10 11 10 10 11 12 13 14 15 15 15 14 13 11
11 12 12 13 13 13 13 11 11 12 10 9 7 7 7 6 7 6 7 7 7 6 7 8 10 12 13 13 14 14 14 14
13 14 14 14 13 14 13 12 12 10 8 7 6 4 5 3 3 3 3 3 2 3 5 6 8 11 13 13 13 14 15 14
15 15 13 13 12 12 12 10 9 7 5 4 1 2 1 1 1 3 3 3 5 6 7 8 11 14 16 17 16 16 18 17
15 15 13 12 11 8 7 6 4 3 1 1 3 4 4 5 5 6 7 8 8 9 11 13 15 16 18 20 21 23 22 21
15 15 13 12 9 8 7 4 4 3 2 4 6 6 6 7 7 8 10 11 12 12 14 15 16 17 20 25 27 28 27 23
16 13 12 10 8 8 9 10 9 8 7 7 7 6 5 7 8 9 11 13 14 16 17 17 20 23 25 27 28 30 29 26
18 17 15 13 11 10 9 9 10 10 10 11 11 9 9 9 10 12 14 15 17 18 20 22 25 26 28 29 30 31 31 29
25 22 18 9 7 6 10 9 9 10 11 11 12 12 11 13 14 15 16 18 20 23 25 27 29 32 33 32 32 33 33 30
30 25 23 13 10 16 13 8 10 10 8 10 12 13 14 14 13 16 19 21 24 27 29 32 34 35 34 33 33 31 29 26
28 24 22 13 22 14 5 3 1 4 5 5 6 9 12 15 18 22 25 27 29 31 33 33 32 32 31 30 28 26 21 16
21 18 5 8 9 6 2 5 8 9 11 13 14 14 16 19 21 25 28 31 33 34 35 33 29 28 29 30 29 9 19 20
15 15 14 12 8 7 8 10 11 14 16 18 18 18 20 23 25 27 30 31 31 31 29 27 26 25 25 27 12 26 9 18
16 14 12 11 10 9 9 9 11 13 14 16 16 16 18 22 26 28 29 28 27 27 26 25 24 22 22 18 12 9 29 20
11 9 7 8 7 5 6 8 11 13 15 15 14 16 21 26 27 24 24 27 27 26 23 20 18 16 16 16 15 18 19 14
5 4 3 2 4 7 9 12 14 12 11 11 14 19 22 23 21 23 27 28 26 24 22 21 19 19 19 17 17 19 20 18
7 3 3 5 7 10 13 14 13 11 10 14 19 22 22 25 25 27 28 29 25 22 20 17 17 18 18 18 19 20 18 19
5 4 6 8 10 11 11 10 11 12 15 18 20 22 25 25 26 28 27 28 25 22 19 17 17 18 20 21 18 16 17 20
6 5 7 10 12 10 9 11 14 17 19 18 21 23 24 25 27 27 25 22 20 18 17 17 19 20 19 18 17 17 20 20

GFSFLT2_850_spd_039.txt.gz
Wind_Speed
16 13 12 12 11 13 13 14 14 13 13 13 12 12 13 12 13 12 11 11 10 11 12 12 12 13 14 15 16 15 14 12
14 13 13 13 13 13 14 14 13 12 13 12 12 11 10 11 10 8 8 8 8 7 7 8 9 10 11 12 12 12 13 14
13 12 12 13 13 14 13 13 13 12 12 10 9 8 7 7 7 6 6 5 4 3 3 5 7 9 11 12 13 13 14 14
13 13 13 13 13 13 12 12 12 10 8 7 6 5 4 3 3 3 2 1 1 4 5 6 8 10 12 13 14 15 17 18
15 14 14 13 12 12 10 11 9 7 6 4 3 1 1 0 2 2 2 2 4 6 7 9 11 12 13 14 16 19 22 22
14 14 14 12 11 9 7 6 6 5 3 2 2 2 3 3 4 5 5 5 7 9 11 12 13 14 15 18 22 23 24 26
13 11 12 11 9 7 6 5 6 6 7 6 5 5 5 6 5 6 8 9 11 12 13 14 15 17 20 23 25 26 28 29
13 14 12 10 8 6 8 10 12 14 13 11 10 9 8 8 8 9 11 12 14 14 15 17 19 22 24 26 28 30 31 31
17 16 14 12 10 5 3 10 12 14 17 17 14 11 9 10 11 12 13 13 13 16 18 20 23 25 27 30 31 32 33 33
20 17 14 12 10 10 16 7 15 15 17 13 11 8 7 8 9 10 11 13 17 21 23 26 29 31 32 31 31 30 29 27
21 21 20 14 9 9 16 11 11 8 5 6 6 7 7 8 9 13 16 19 23 25 27 28 29 28 27 26 25 25 24 24
22 21 21 17 6 7 5 1 1 3 5 6 8 9 10 12 15 17 20 24 26 27 27 26 25 25 25 23 24 22 16 15
13 16 11 3 9 11 10 5 4 1 5 8 10 10 10 13 15 19 24 26 26 25 25 26 24 27 25 18 16 10 10 20
8 11 13 15 12 10 6 3 3 7 11 11 13 14 13 14 19 23 23 20 21 23 24 24 23 23 19 16 11 13 8 9
20 20 19 16 11 6 2 0 3 7 10 12 12 10 12 18 21 21 19 22 24 24 24 22 19 18 18 10 11 10 20 12
17 15 13 10 6 3 4 5 7 9 10 10 8 11 16 18 18 17 19 21 23 23 22 20 19 12 12 11 12 14 14 16
12 11 9 6 5 4 7 8 8 8 8 7 11 14 17 17 19 19 21 22 22 23 22 21 17 13 11 11 12 13 15 14
10 8 10 7 4 5 6 7 6 6 7 11 14 16 18 20 20 21 22 24 25 23 22 21 16 15 14 14 13 14 15 14
12 11 7 4 4 5 5 5 6 9 12 14 14 17 18 19 21 24 27 26 23 21 18 17 17 17 17 17 17 16 16 18
10 8 5 3 4 3 4 6 9 10 12 13 15 17 18 21 24 26 25 24 24 23 23 20 17 16 19 19 20 18 19 21

GFSFLT2_850_spd_042.txt.gz
Wind_Speed
14 14 14 12 11 12 13 12 12 11 11 11 10 11 10 10 9 9 10 9 9 9 9 9 9 10 11 12 13 14 11 10
14 13 11 12 13 13 13 13 12 12 12 11 10 9 9 8 6 5 6 6 6 4 4 4 5 7 8 10 11 14 11 10
14 12 12 11 11 13 13 13 13 12 11 9 8 7 6 5 4 3 3 3 1 1 3 4 6 8 8 9 10 9 11 11
12 12 13 14 11 13 13 13 11 9 7 7 4 4 3 3 3 3 4 3 4 5 6 7 6 6 8 10 8 13 11 12
13 14 14 14 13 11 9 8 8 6 5 5 4 3 3 3 3 3 5 5 3 5 6 6 12 10 11 14 13 12 13 14
13 13 14 14 12 9 10 7 7 5 5 4 4 4 6 6 4 6 6 6 8 8 7 13 14 16 17 18 19 17 15 17
13 13 12 11 10 9 7 6 4 6 7 9 8 7 8 8 9 8 9 9 7 8 7 9 12 13 15 18 17 17 18 18
13 13 13 12 10 8 5 7 10 11 13 14 11 12 10 9 10 11 10 9 9 8 13 14 14 16 17 18 21 21 18 19
14 14 14 13 10 6 2 8 8 6 10 11 12 9 8 7 9 8 9 10 10 13 17 14 16 17 19 19 20 19 18 16
16 17 14 13 12 12 13 10 13 12 10 7 4 3 4 6 7 9 9 12 14 14 14 16 16 17 18 18 19 17 17 15
16 18 19 19 14 15 9 8 6 2 3 4 3 4 3 5 7 9 12 13 13 14 15 15 17 17 18 20 19 19 18 16
17 18 20 22 17 18 5 5 5 1 2 2 4 6 7 7 9 13 15 13 12 17 18 16 16 18 19 20 18 21 18 15
14 10 11 7 12 8 11 6 5 2 3 5 6 6 7 8 9 12 14 11 15 16 16 17 18 17 20 22 22 18 13 15
10 9 11 15 14 12 9 10 6 4 5 5 6 7 8 10 12 9 14 15 15 17 17 18 18 17 18 21 21 21 21 13
17 18 20 17 14 12 10 8 5 4 7 8 9 8 9 14 19 22 20 16 15 16 15 15 18 18 17 18 21 20 23 23
20 19 16 15 14 10 8 5 4 7 7 6 5 11 14 18 19 19 17 14 15 16 17 17 17 21 19 19 19 20 19 22
18 16 13 14 12 9 6 5 5 8 6 6 8 10 15 15 14 15 14 17 18 19 18 18 19 18 17 16 16 17 19 20
15 13 15 12 8 7 6 6 3 3 4 6 9 11 12 13 14 15 18 19 20 20 19 18 18 17 16 15 14 15 18 17
13 10 9 8 7 6 5 3 2 3 6 9 11 14 15 17 16 18 21 22 21 20 19 19 18 16 18 18 14 14 15 16
10 10 8 8 5 5 4 2 4 6 8 11 13 14 15 15 16 19 21 21 21 20 19 18 18 19 20 15 13 15 14 15